Regional Weather Roundup
Issued by NWS

Home | Current Version | Previous Version | Text Only | Print | Product List | Glossary Off
Versions: 1 2 3 4 5 6 7 8 9 10 11 12 13 14 15 16 17 18 19 20 21 22 23 24 25 26 27 28 29 30 31 32 33 34 35 36 37 38 39 40 41 42 43 44 45 46 47 48 49 50

000
ASUS43 KBIS 270210
RWRND
NORTH DAKOTA REGIONAL WEATHER ROUNDUP
NATIONAL WEATHER SERVICE EASTERN NORTH DAKOTA/GRAND FORKS ND
900 PM CDT MON JUN 26 2017

  NOTE: "FAIR" INDICATES FEW OR NO CLOUDS BELOW 12,000 FEET WITH NO
  SIGNIFICANT WEATHER AND/OR OBSTRUCTIONS TO VISIBILITY.

NDZ001>003-009>011-017-270300-
...NORTHWEST NORTH DAKOTA...

CITY           SKY/WX    TMP DP  RH WIND       PRES   REMARKS
WILLISTON      FAIR      78  41  26 SE12      29.88F
MINOT          FAIR      73  41  31 SE8       29.96F
MINOT AFB      FAIR      69  47  43 SE7       29.95F
$$

NDZ018>021-031>035-040>046-270300-
...SOUTHWEST NORTH DAKOTA...

CITY           SKY/WX    TMP DP  RH WIND       PRES   REMARKS
BISMARCK       FAIR      70  44  39 SE10      30.02F
DICKINSON      FAIR      70  36  28 SE13      29.95F
GARRISON         N/A     70  44  39 SE12      29.97F
HETTINGER      FAIR      71  39  31 SE13      30.01F
$$

NDZ004>008-012>016-024-026-027-054-270300-
...NORTHEAST NORTH DAKOTA...

CITY           SKY/WX    TMP DP  RH WIND       PRES   REMARKS
GRAND FORKS    FAIR      68  43  40 W5        30.04F
GRAND FORKS AF FAIR      65  43  43 W5        30.06F
DEVILS LAKE    FAIR      64  45  49 SE7       30.05F
$$

NDZ022-023-025-028>030-036>039-047>053-270300-
...SOUTHEAST NORTH DAKOTA...

CITY           SKY/WX    TMP DP  RH WIND       PRES   REMARKS
JAMESTOWN      FAIR      65  42  43 S5        30.07F
FARGO          FAIR      67  41  38 W7        30.07F
WAHPETON       FAIR      64  39  39 SW5       30.10F
$$




USA.gov is the U.S. government's official web portal to all federal, state and local government web resources and services.